RH
11 12 14 15 14 11 9 7 7 7 7 8 8 8 9 10 10 10 8 10 12 12 10 9 9 9 9 9 10 10 10 10 10 10 11 10 10 11 12 14 16 16 17 18 18
13 15 16 18 17 15 10 9 8 9 10 10 10 11 12 13 12 13 14 15 15 14 16 15 11 10 11 13 15 17 17 16 16 17 18 20 20 21 22 21 20 20 22 22 22
18 18 19 20 19 18 15 10 10 10 11 12 13 14 15 16 16 15 14 14 16 19 18 15 19 20 22 23 23 24 25 26 27 26 28 29 30 30 29 28 28 27 28 29 28
17 18 20 20 20 19 18 13 11 12 12 13 15 17 19 20 18 20 18 17 16 17 19 20 17 16 19 21 22 24 24 27 28 31 31 31 30 25 22 22 21 22 22 21 21
19 20 20 20 21 20 19 16 14 14 14 17 19 20 20 19 18 20 21 21 20 18 18 21 23 22 22 22 23 23 25 28 28 26 24 22 20 21 19 21 23 24 22 22 22
20 22 23 22 21 21 20 19 17 17 19 21 20 17 14 14 14 16 21 22 21 20 19 21 24 24 25 26 27 28 26 24 21 20 19 19 21 22 22 22 23 23 23 20 18
23 26 25 22 22 21 22 21 21 21 21 20 17 11 10 13 14 15 17 21 22 21 20 20 21 24 25 25 24 21 20 20 20 20 21 21 21 16 13 9 7 6 6 5 5
27 26 24 22 23 23 23 24 23 21 20 18 14 14 9 11 12 12 16 20 20 19 20 19 19 20 20 20 20 19 20 22 22 19 12 8 5 3 3 3 3 3 3 4 5
25 25 24 22 24 22 22 23 22 19 19 18 14 12 12 12 10 12 16 18 17 19 18 17 18 19 19 21 21 22 21 15 11 7 4 2 2 2 4 5 5 6 7 10 12
15 13 18 23 22 20 20 22 21 19 21 19 13 14 13 11 10 12 12 14 16 17 18 20 19 19 19 20 20 18 12 10 6 5 3 4 4 4 5 5 7 7 8 9 11
12 14 16 22 21 22 23 23 22 21 22 19 16 13 12 11 11 11 12 13 12 16 20 19 20 14 18 16 12 8 6 5 4 4 4 4 4 5 6 7 8 10 11 12 15
9 12 20 22 24 25 25 26 24 23 24 21 18 13 12 11 12 10 11 11 10 14 14 16 15 18 16 12 9 7 5 4 4 4 3 3 5 6 8 9 13 16 18 21 22
9 14 17 19 22 22 23 25 26 26 25 23 15 12 11 12 10 9 10 10 9 9 12 11 12 11 8 6 5 5 4 4 4 4 5 5 6 8 10 14 18 22 24 24 26
14 12 17 21 26 29 28 28 26 29 28 21 14 12 12 11 9 8 8 8 8 9 9 9 9 8 7 5 4 4 5 5 5 5 6 8 8 9 14 18 22 26 30 35 36
17 17 20 29 30 32 35 29 26 29 29 23 17 14 11 9 9 9 8 9 9 8 8 9 8 6 6 6 6 6 6 6 6 6 7 10 12 13 19 24 30 36 37 36 33
25 21 23 29 28 27 32 34 27 32 31 28 21 17 13 10 10 11 11 9 9 10 8 7 6 7 7 7 7 7 8 8 9 10 12 13 17 17 26 35 40 39 38 33 22
17 24 23 23 27 28 27 31 32 31 33 32 28 23 19 14 14 15 15 14 11 9 9 8 9 8 8 8 9 12 15 15 15 15 14 17 21 26 35 44 41 40 35 19 9
11 15 18 19 20 21 23 26 28 31 34 32 36 30 24 20 17 17 18 19 16 14 13 10 10 9 10 11 12 15 16 20 18 16 14 19 25 32 43 43 42 38 20 9 6
8 11 13 13 14 17 19 24 30 29 29 35 35 37 32 27 23 22 22 23 20 13 12 13 13 10 11 12 16 18 20 18 17 16 20 25 30 39 43 46 42 27 11 7 7
8 13 14 13 10 12 15 22 28 30 29 29 35 37 37 31 28 27 26 27 25 22 16 14 13 12 15 18 21 24 21 22 25 33 35 32 37 50 52 48 34 15 8 7 8
10 11 12 10 8 9 11 18 29 31 31 32 36 35 38 36 33 31 31 31 29 26 24 18 16 17 21 22 24 21 24 27 30 36 50 48 50 57 56 43 25 10 8 8 9
8 8 8 7 8 8 8 14 19 29 32 35 39 41 38 41 38 36 38 36 32 29 24 20 18 21 22 24 25 27 32 30 29 39 54 58 58 65 52 33 14 8 10 12 11
8 8 8 7 7 8 8 9 13 22 29 36 38 43 43 44 44 42 40 37 34 30 23 22 22 23 25 28 28 34 35 36 34 38 45 62 72 63 46 21 9 9 12 13 11
10 9 9 8 8 8 9 7 8 13 28 38 42 47 47 47 47 43 40 38 34 28 24 25 27 28 33 34 33 40 42 38 35 44 50 72 68 58 39 17 7 9 14 13 9
11 11 12 10 9 9 10 8 5 7 26 36 40 45 50 49 49 44 41 36 28 27 28 31 31 33 38 39 38 42 39 34 38 47 61 71 66 55 26 11 6 10 19 17 13
14 14 14 13 11 10 11 10 5 3 22 33 42 45 50 53 51 45 38 30 26 29 32 34 35 36 43 43 43 37 36 40 47 52 68 72 64 46 17 8 6 14 22 21 18
18 17 15 15 14 12 12 12 7 2 9 28 40 46 53 56 55 45 36 30 31 34 36 38 38 40 42 42 42 37 41 42 50 64 70 69 60 29 12 6 7 18 26 25 22
Wind_Speed
17 17 16 14 13 12 12 13 14 15 14 14 14 13 13 13 14 14 12 12 13 13 13 12 10 6 4 5 6 7 7 8 10 11 12 13 12 12 13 15 16 18 20 22 24
16 15 14 13 11 11 10 11 12 13 12 12 11 11 12 13 13 12 11 11 11 12 12 11 10 9 9 10 9 10 10 10 11 10 11 13 12 11 12 14 17 20 23 25 27
14 13 13 12 10 10 9 9 10 10 10 10 11 12 12 12 11 11 11 10 9 9 9 8 7 7 7 8 8 9 10 12 11 10 10 12 13 14 15 17 19 21 23 25 26
12 11 10 10 8 9 7 8 8 7 8 9 10 9 9 9 10 10 9 10 9 8 7 5 4 4 6 9 10 10 10 9 10 9 10 10 12 13 14 15 17 19 22 24 25
12 12 11 9 8 9 8 7 7 6 7 8 8 8 9 9 8 8 8 8 8 7 5 5 6 7 8 8 7 7 9 8 8 7 6 6 8 11 13 16 19 22 26 29 32
14 12 11 10 10 9 8 6 6 6 7 5 8 9 9 8 10 10 10 9 8 9 9 7 6 5 5 6 7 8 8 7 7 8 9 9 11 15 18 21 23 25 26 28 30
13 13 12 12 11 9 8 6 5 6 5 6 9 10 10 12 10 12 11 10 10 9 10 10 11 10 10 10 8 7 6 8 8 9 10 13 15 18 20 23 25 26 29 33 37
15 14 13 12 11 10 7 6 6 5 5 8 8 10 10 12 13 12 10 10 9 11 13 13 12 12 11 10 8 8 9 12 15 16 18 17 19 21 23 28 31 33 34 38 41
15 14 12 12 11 10 7 5 5 4 6 7 8 8 10 10 12 8 9 8 9 12 13 11 11 11 9 8 7 9 11 13 15 18 18 19 21 22 24 31 36 40 44 47 49
16 14 13 11 11 9 6 4 3 3 5 8 8 9 9 8 8 7 7 7 6 9 10 9 8 7 6 7 9 9 11 12 13 15 17 19 23 30 36 40 45 50 53 55 59
14 12 12 12 11 8 5 2 2 4 6 8 7 7 6 6 7 7 7 6 4 5 6 6 6 6 9 11 13 14 14 13 14 17 19 25 31 34 40 45 50 53 56 60 63
13 12 11 10 9 7 4 3 1 3 6 8 7 7 5 6 7 7 6 4 4 3 4 5 5 6 8 10 13 15 15 15 17 21 25 29 34 40 45 51 57 60 64 66 68
13 13 11 10 8 6 5 4 2 3 6 7 8 7 6 8 8 8 7 7 6 6 6 7 8 10 12 13 14 15 17 21 23 26 27 33 39 46 53 58 63 66 67 69 72
13 14 11 10 7 6 4 4 4 5 4 7 7 9 8 7 8 8 8 6 5 6 7 8 10 12 12 13 16 18 21 24 28 30 33 39 48 54 59 63 67 70 72 77 82
13 13 11 10 9 10 6 6 6 4 4 6 6 9 8 6 8 9 9 9 9 10 10 11 12 13 14 16 19 22 24 27 31 34 39 46 55 59 64 66 70 73 78 82 85
15 14 12 9 7 7 9 8 6 4 5 6 7 8 9 7 9 10 10 11 11 11 12 14 16 17 18 19 22 26 30 33 35 39 43 51 58 62 66 70 75 78 81 83 85
16 15 12 8 5 6 7 8 7 6 6 8 8 8 9 8 10 10 11 12 14 16 16 17 18 20 22 22 24 28 32 34 38 41 47 54 61 64 69 74 77 79 82 83 83
17 14 12 8 5 3 4 6 6 8 7 7 8 8 9 11 12 14 15 17 18 17 19 20 19 20 22 24 29 33 34 35 39 44 50 57 61 67 71 76 78 79 81 79 73
17 15 12 8 5 3 3 5 7 8 10 10 10 9 10 10 12 14 16 19 20 19 19 20 21 23 26 29 33 34 35 38 43 49 55 59 64 69 74 77 77 79 76 68 60
18 14 12 9 6 2 2 4 5 7 8 12 12 11 10 10 12 16 18 19 20 21 22 23 23 24 27 29 31 34 37 44 49 56 59 64 66 73 76 76 78 78 70 60 56
19 15 12 8 6 3 1 5 8 8 9 11 12 12 12 12 13 16 18 20 20 22 22 21 22 24 26 28 32 35 42 46 53 59 63 69 71 75 76 76 78 74 63 53 51
20 16 12 9 6 3 1 5 10 10 11 13 14 13 15 14 15 17 21 22 21 23 22 21 23 26 27 29 33 39 44 49 57 61 63 67 72 74 76 75 77 70 57 50 51
21 17 13 10 6 3 2 6 9 12 12 14 15 14 15 16 16 18 21 21 22 23 21 22 26 27 28 33 36 43 48 53 58 61 64 68 71 73 75 75 73 64 54 49 50
23 18 13 11 7 4 4 7 11 13 13 16 18 16 18 20 18 18 19 21 22 21 21 23 26 27 30 33 39 46 52 56 58 62 67 69 71 75 75 76 70 59 52 48 51
24 19 15 11 8 5 6 9 12 14 15 17 18 20 20 20 18 19 20 21 22 21 23 25 27 28 33 35 41 48 52 57 59 64 68 70 73 76 76 76 67 56 50 49 53
24 20 18 14 10 8 8 11 13 15 16 18 20 22 23 20 20 20 21 20 20 22 24 27 30 31 34 37 41 48 55 59 63 67 68 71 74 76 77 73 64 55 50 50 56
24 22 19 15 13 11 11 12 15 16 17 20 22 23 24 21 20 21 21 20 21 24 26 30 32 35 37 39 45 52 57 63 67 69 69 72 74 76 78 71 60 51 50 54 61
Wind_Direction
134 125 115 106 100 97 97 96 92 88 86 81 74 68 63 57 50 43 40 41 42 45 47 55 66 64 36 27 20 11 359 353 352 349 339 337 337 328 321 317 313 307 304 304 303
136 130 123 118 118 109 106 101 96 94 85 75 69 60 51 43 38 35 29 35 33 35 41 46 46 58 66 60 44 28 16 9 10 3 355 342 338 333 322 310 304 303 304 304 305
142 141 137 132 125 120 111 106 103 92 81 70 59 48 39 33 31 24 21 22 23 24 29 36 45 53 58 43 29 18 11 6 7 0 352 339 339 336 332 331 327 323 320 316 313
154 157 152 145 137 127 123 113 100 88 72 59 48 40 28 20 25 17 17 23 21 17 12 3 4 11 27 22 14 4 3 3 359 358 0 358 353 347 339 330 326 321 318 317 313
168 171 157 148 145 147 134 115 109 97 67 45 27 19 19 17 22 20 16 20 27 26 16 3 357 2 9 15 11 2 4 0 18 30 25 8 352 333 323 322 322 320 317 316 314
176 167 153 154 149 139 128 124 112 85 64 34 18 11 15 21 32 44 43 40 42 40 38 41 49 49 40 37 25 23 29 30 24 19 13 354 340 328 325 325 319 317 314 311 306
174 164 161 153 137 129 127 121 97 68 36 20 21 33 37 51 51 55 54 56 59 64 69 67 64 65 63 65 52 42 27 16 12 5 358 339 329 329 332 327 322 321 318 317 315
172 160 151 141 135 128 127 119 87 51 19 20 32 41 53 48 50 52 62 71 85 85 78 75 72 71 65 61 49 27 6 0 356 354 346 340 336 338 339 336 331 326 321 316 311
149 141 140 140 137 128 133 112 86 52 23 34 40 53 53 51 51 56 68 75 82 86 85 79 68 63 56 45 22 9 355 352 348 340 342 342 341 340 332 329 327 325 322 320 316
141 129 125 135 136 130 130 116 85 47 18 32 25 40 49 53 47 57 69 69 82 93 94 82 69 41 22 12 355 347 335 336 342 333 335 332 339 341 335 329 325 322 317 314 312
145 125 126 125 135 135 125 97 71 40 9 27 14 26 33 38 29 30 50 60 52 57 77 69 36 5 345 342 336 333 328 334 328 328 337 335 336 331 326 322 318 313 311 309 308
141 135 126 124 129 132 114 73 31 27 23 11 359 13 11 6 15 15 25 33 35 35 27 13 337 311 312 322 317 321 322 322 325 328 327 324 324 323 319 316 316 316 312 311 309
149 139 130 125 123 118 109 76 24 18 9 2 357 357 357 357 3 3 13 11 5 353 342 321 313 313 322 324 333 334 328 325 321 323 324 321 318 319 318 319 317 315 312 309 307
150 141 137 126 114 103 91 64 37 26 1 359 4 359 359 337 353 359 358 2 352 330 318 310 303 310 314 327 334 332 324 320 318 318 320 318 315 318 320 318 317 315 314 314 313
158 150 143 126 102 83 78 51 35 20 7 348 4 356 347 340 350 357 352 348 337 329 316 316 311 309 320 327 326 322 320 320 318 318 317 317 318 320 318 317 317 317 318 317 317
168 157 149 134 104 85 65 56 49 31 9 357 352 353 348 342 340 346 346 334 330 323 315 314 316 324 324 323 324 326 325 321 321 314 317 320 320 319 319 320 320 320 319 320 321
176 174 161 150 134 97 69 57 47 38 7 356 349 340 338 332 328 333 335 330 320 318 318 318 321 323 325 326 327 326 325 319 321 322 323 320 319 320 323 321 322 321 322 324 322
183 175 171 174 162 106 66 47 41 27 9 351 345 335 327 331 328 326 329 333 323 316 314 318 319 323 325 324 321 323 325 328 328 324 319 319 321 322 322 323 323 324 326 326 323
178 171 173 176 163 139 62 37 32 23 7 351 342 334 320 317 321 320 324 328 329 320 309 310 316 322 323 322 325 328 328 329 326 322 322 324 324 324 323 324 325 328 327 326 327
179 177 176 184 188 151 53 30 20 17 6 355 345 334 323 316 318 316 321 324 325 325 318 313 316 320 323 326 329 331 332 332 328 326 325 325 326 324 326 328 329 330 327 328 330
185 187 184 189 192 192 352 19 13 0 356 351 344 327 322 317 317 316 316 320 320 322 319 316 323 326 328 333 334 332 334 332 329 327 328 325 328 327 327 331 331 330 329 328 333
192 195 191 197 212 208 337 1 6 359 351 345 350 335 324 321 320 316 315 318 318 323 323 324 328 328 332 334 333 336 334 333 331 330 328 326 327 329 331 331 332 330 328 329 332
197 203 198 202 219 240 324 355 358 357 347 346 342 338 331 327 320 319 319 318 319 322 324 327 328 328 331 333 337 337 335 334 333 330 328 328 330 329 332 333 330 329 326 327 331
201 207 208 211 225 260 308 337 353 348 348 346 345 342 339 332 324 322 319 318 318 321 325 328 328 328 332 334 334 335 335 334 334 331 330 330 331 330 332 334 332 326 323 329 333
202 205 214 220 229 260 304 326 340 344 343 341 341 340 337 332 325 323 322 322 323 325 326 327 328 326 329 331 332 334 333 335 336 332 332 333 332 333 333 334 332 329 329 332 333
204 208 219 226 241 262 290 315 328 335 340 336 336 335 337 329 327 325 324 325 323 320 321 323 325 324 330 328 331 334 335 337 337 334 334 334 334 334 334 335 335 334 331 332 333
207 213 223 231 241 259 281 306 318 326 330 332 330 330 333 328 322 325 323 321 319 319 319 322 322 323 328 329 334 335 336 338 337 335 335 334 334 334 336 337 339 335 337 336 335